FW2081 Weather Reports


time (UTC)temp
C
wind
direction
speed
KPH
gust
KPH
rain 1hr
cm
rain 24hr
cm
rain mn
cm
humidity
%
barometer
mb
20260510093006 7 217 0.0 0.0 0.00 1.68 0.00 96 1009.5
20260510091530 7 217 0.0 0.0 0.00 1.91 0.00 96 1009.3
20260510090007 7 217 0.0 0.0 0.00 1.91 0.00 96 1009.1
20260510084556 7 217 0.0 0.0 0.00 1.91 0.00 96 1009.0
20260510083023 7 242 0.0 1.6 0.00 1.91 0.00 96 1009.0
20260510081504 7 253 0.0 0.0 0.00 2.24 0.00 96 1008.7
20260510080058 7 253 0.0 0.0 0.00 2.24 0.00 96 1008.8
20260510074532 7 253 0.0 0.0 0.00 2.24 0.00 96 1008.8
20260510073025 7 203 0.0 0.0 0.00 2.24 0.00 96 1009.1
20260510071549 7 203 0.0 0.0 0.00 2.72 0.00 96 1009.4
20260510070035 7 172 0.0 0.0 0.00 2.72 0.00 96 1009.6
20260510064508 7 172 0.0 0.0 0.00 2.72 0.00 96 1009.7
20260510063038 7 172 0.0 0.0 0.00 2.72 0.00 96 1010.1
20260510061515 7 153 0.0 1.6 0.00 2.74 0.00 96 1010.2
20260510060059 7 63 1.6 8.0 0.00 2.74 0.00 96 1010.3
20260510054532 7 170 0.0 0.0 0.00 2.74 0.00 96 1010.3
20260510053012 7 199 0.0 1.6 0.00 2.74 0.00 96 1009.6
20260510051604 7 215 0.0 0.0 0.00 2.74 0.00 96 1009.6
20260510050024 8 214 0.0 0.0 0.00 2.74 0.00 96 1009.6
20260510044508 8 214 0.0 0.0 0.00 2.74 0.00 96 1009.7
20260510043046 8 213 0.0 1.6 0.00 2.74 0.00 96 1009.6
20260510041523 8 210 0.0 0.0 0.00 2.74 2.74 96 1009.5
20260510040105 8 235 0.0 0.0 0.00 2.74 2.74 96 1009.2
20260510034539 8 214 0.0 0.0 0.00 2.74 2.74 96 1009.1
20260510033021 8 214 0.0 1.6 0.00 2.74 2.74 96 1009.0
20260510031603 8 291 0.0 1.6 0.00 2.74 2.74 96 1009.2
20260510030041 8 253 0.0 0.0 0.00 2.74 2.74 96 1009.2
20260510024521 8 253 0.0 1.6 0.00 2.74 2.74 95 1009.2
20260510023057 8 230 0.0 3.2 0.00 2.74 2.74 95 1009.1
20260510021620 8 221 0.0 1.6 0.00 2.74 2.74 95 1009.0
20260510020019 8 221 0.0 1.6 0.00 2.74 2.74 95 1009.0
20260510014558 8 221 0.0 1.6 0.00 2.74 2.74 95 1008.9
20260510013035 8 195 0.0 1.6 0.00 2.74 2.74 95 1008.8
20260510011518 8 195 0.0 0.0 0.00 2.74 2.74 95 1008.8
20260510010059 8 187 0.0 0.0 0.00 2.74 2.74 95 1008.8
20260510004536 8 187 0.0 1.6 0.00 2.74 2.74 95 1008.8
20260510003022 8 318 0.0 1.6 0.00 2.74 2.74 95 1008.6
20260510001553 8 319 0.0 1.6 0.00 2.74 2.74 95 1008.2
20260510000034 8 246 0.0 3.2 0.00 2.74 2.74 94 1008.1
20260509234521 8 161 0.0 0.0 0.00 2.74 2.74 94 1008.0
20260509233003 8 163 0.0 1.6 0.00 2.74 2.74 94 1007.8
20260509231539 8 281 0.0 4.8 0.00 2.74 2.74 93 1007.5
20260509230026 8 166 0.0 6.4 0.00 2.74 2.74 93 1007.5
20260509224553 8 192 0.0 6.4 0.00 2.74 2.74 93 1007.4
20260509223034 8 143 0.0 4.8 0.00 2.74 2.74 93 1007.5
20260509221510 8 231 1.6 4.8 0.00 2.74 2.74 93 1007.6
20260509220051 8 176 0.0 8.0 0.00 2.74 2.74 93 1007.8
20260509214529 8 155 0.0 3.2 0.00 2.74 2.74 93 1007.9
20260509213010 8 191 0.0 4.8 0.00 2.74 2.74 94 1007.8
20260509211549 8 198 0.0 6.4 0.03 2.74 2.74 94 1008.1
20260509210026 8 5 0.0 4.8 0.05 2.74 2.74 94 1008.1
20260509204509 8 150 0.0 8.0 0.08 2.74 2.74 94 1008.2
20260509203042 8 219 0.0 6.4 0.13 2.74 2.74 94 1008.4
20260509201526 8 153 0.0 6.4 0.15 2.72 2.72 95 1008.5
20260509200007 8 184 0.0 6.4 0.18 2.69 2.72 94 1008.6
20260509194554 8 129 0.0 6.4 0.18 2.67 2.67 94 1008.9
20260509193034 8 300 0.0 4.8 0.20 2.62 2.62 95 1009.0
20260509191511 8 180 0.0 4.8 0.20 2.57 2.57 95 1009.0
20260509190055 8 295 1.6 6.4 0.23 2.51 2.51 95 1009.1
20260509184535 8 6 1.6 4.8 0.30 2.49 2.49 95 1009.0
20260509183016 8 129 0.0 9.7 0.30 2.41 2.41 95 1009.1
20260509181554 7 175 1.6 12.9 0.30 2.36 2.36 95 1009.1
20260509180048 7 237 0.0 4.8 0.28 2.29 2.29 95 1009.0
20260509174519 7 254 0.0 3.2 0.23 2.18 2.18 95 1008.9
20260509173104 7 278 0.0 4.8 0.23 2.11 2.11 95 1008.8
20260509171539 7 302 0.0 3.2 0.20 2.06 2.06 95 1008.9
20260509170016 7 269 0.0 3.2 0.18 1.98 1.98 95 1008.9
20260509164550 7 320 0.0 4.8 0.18 1.93 1.96 95 1009.0
20260509163032 7 280 1.6 4.8 0.18 1.88 1.88 95 1009.1
20260509161510 6 317 0.0 3.2 0.18 1.85 1.85 95 1009.3
20260509160051 6 304 1.6 4.8 0.18 1.80 1.80 95 1009.7
20260509154529 6 295 0.0 3.2 0.18 1.75 1.75 95 1009.7
20260509153027 6 300 0.0 1.6 0.15 1.70 1.70 95 1009.9
20260509151545 6 303 0.0 4.8 0.18 1.70 1.68 95 1010.1
20260509150024 6 304 0.0 4.8 0.15 1.65 1.63 94 1010.2
20260509144553 6 305 0.0 3.2 0.15 1.60 1.57 94 1010.2
20260509143032 6 310 0.0 4.8 0.18 1.57 1.55 94 1010.2
20260509141532 6 301 1.6 8.0 0.18 1.52 1.50 94 1010.1
20260509140108 6 325 1.6 4.8 0.18 1.50 1.45 93 1010.2
20260509134539 6 316 3.2 8.0 0.13 1.42 1.42 93 1010.2
20260509133021 6 312 1.6 4.8 0.08 1.40 1.37 93 1010.3
20260509131604 6 309 1.6 6.4 0.03 1.35 1.32 93 1010.1
20260509131502 6 309 1.6 6.4 0.03 1.35 1.32 93 1010.1